Weather History for Sydney, NW

Change the Weather History Date:

Saturday, April 5, 2014

  Actual Average Record
Temperature  
Mean Temperature 68 °F -  
Max Temperature 73 °F 72 °F 91 °F (2006)
Min Temperature 64 °F 56 °F 53 °F (2008)
Cooling Degree Days 4    
Growing Degree Days 18 (Base 50)    
Moisture  
Dew Point 63 °F    
Average Humidity 80    
Maximum Humidity 94    
Minimum Humidity 64    
Precipitation  
Precipitation 0.01 in 0.15 in - ()
Sea Level Pressure  
Sea Level Pressure 30.05 in    
Wind  
Wind Speed 11 mph ()    
Max Wind Speed 28 mph    
Max Gust Speed 44 mph    
Visibility 7.6 miles    
Events Fog    
Averages and records for this station are not official NWS values.
T = Trace of Precipitation, MM = Missing Value Source: Averaged Metar Reports

Daily Weather History Graph

Daily Weather History Graph

Search for Another Location

Airport:

Trip Planner

Search our weather history database for the weather conditions in past years. The results will help you decide how hot, cold, wet, or windy it might be!

Date:

Astronomy

Apr. 05, 2014 Rise Set
Actual Time 7:10 AM AEDT 6:45 PM AEDT
Civil Twilight 6:45 AM AEDT 7:10 PM AEDT
Nautical Twilight 6:16 AM AEDT 7:39 PM AEDT
Astronomical Twilight 5:47 AM AEDT 8:08 PM AEDT
Moon 12:12 PM AEDT (4/5) 10:45 PM AEDT (4/5)
Length of Visible Light 12h 25m
Length of Day
11h 35m
Waxing Crescent, 28% of the Moon is Illuminated
Apr 5
Waxing Crescent
Apr 7
First Quarter
Apr 15
Full
Apr 22
Last Quarter
Apr 29
New

Hourly Weather History & Observations

Time (AEDT) Temp. Dew Point Humidity Pressure Visibility Wind Dir Wind Speed Gust Speed Precip Events Conditions
12:00 AM 68 °F 64 °F 85% 30.05 in 19 mi NW 8.1 mph - -   Partly Cloudy
12:00 AM 68.0 °F 64.4 °F 88% 30.04 in 6.2 mi NW 8.1 mph - N/A   Mostly Cloudy
12:30 AM 68.0 °F 64.4 °F 88% 30.04 in 6.2 mi WNW 5.8 mph - N/A   Mostly Cloudy
1:00 AM 67 °F 64 °F 87% 30.04 in - West 8.1 mph - -  
1:00 AM 66.2 °F 64.4 °F 94% 30.04 in 6.2 mi West 8.1 mph - N/A   Mostly Cloudy
1:30 AM 66.2 °F 64.4 °F 94% 30.04 in - West 8.1 mph - N/A   Clear
2:00 AM 66 °F 64 °F 93% 30.04 in - West 8.1 mph - -  
2:00 AM 66.2 °F 64.4 °F 94% 30.04 in - West 8.1 mph - N/A   Clear
2:30 AM 66.2 °F 64.4 °F 94% 30.04 in - WSW 9.2 mph - N/A   Clear
3:00 AM 66 °F 64 °F 92% 30.04 in 9 mi West 8.1 mph - -   Partly Cloudy
3:00 AM 66.2 °F 64.4 °F 94% 30.04 in 6.2 mi West 8.1 mph - N/A   Scattered Clouds
3:30 AM 66.2 °F 64.4 °F 94% 30.01 in 6.2 mi West 9.2 mph - N/A Fog Mostly Cloudy
4:00 AM 66 °F 64 °F 89% 30.02 in - West 6.9 mph - -  
4:00 AM 66.2 °F 64.4 °F 94% 30.01 in 6.2 mi West 6.9 mph - N/A   Mostly Cloudy
4:30 AM 64.4 °F 62.6 °F 94% 30.01 in 6.2 mi West 6.9 mph - N/A   Partly Cloudy
5:00 AM 65 °F 63 °F 90% 30.01 in - WNW 5.8 mph - -  
5:00 AM 64.4 °F 62.6 °F 94% 30.01 in 6.2 mi WNW 5.8 mph - N/A   Partly Cloudy
5:30 AM 66.2 °F 62.6 °F 88% 30.01 in 6.2 mi NW 5.8 mph - N/A   Partly Cloudy
6:00 AM 66 °F 63 °F 85% 30.04 in 16 mi NNW 5.8 mph - -   Partly Cloudy
6:00 AM 66.2 °F 62.6 °F 88% 30.04 in 6.2 mi NNW 5.8 mph - N/A   Partly Cloudy
6:30 AM 66.2 °F 62.6 °F 88% 30.04 in 6.2 mi NW 6.9 mph - N/A   Partly Cloudy
7:00 AM 66 °F 62 °F 83% 30.05 in - NW 6.9 mph - -  
7:00 AM 66.2 °F 62.6 °F 88% 30.04 in 6.2 mi NW 6.9 mph - N/A   Mostly Cloudy
7:30 AM 66.2 °F 62.6 °F 88% 30.06 in 6.2 mi WNW 6.9 mph - N/A   Mostly Cloudy
8:00 AM 66 °F 62 °F 83% 30.07 in - WNW 6.9 mph - -  
8:00 AM 66.2 °F 62.6 °F 88% 30.06 in 6.2 mi WNW 6.9 mph - N/A   Mostly Cloudy
8:30 AM 66.2 °F 62.6 °F 88% 30.06 in 6.2 mi West 6.9 mph - N/A   Mostly Cloudy
9:00 AM 69 °F 63 °F 77% 30.09 in 19 mi West 6.9 mph - -   Partly Cloudy
9:00 AM 68.0 °F 62.6 °F 83% 30.06 in 6.2 mi WSW 6.9 mph - N/A   Mostly Cloudy
9:30 AM 69.8 °F 62.6 °F 78% 30.06 in 6.2 mi SW 6.9 mph - N/A   Scattered Clouds
10:00 AM 70 °F 62 °F 69% 30.08 in - SW 5.8 mph - -  
10:00 AM 69.8 °F 62.6 °F 78% 30.06 in 6.2 mi SW 5.8 mph - N/A   Partly Cloudy
10:30 AM 71.6 °F 62.6 °F 73% 30.06 in 6.2 mi SW 6.9 mph - N/A   Mostly Cloudy
11:00 AM 72 °F 63 °F 65% 30.09 in - SW 9.2 mph - -  
11:00 AM 71.6 °F 62.6 °F 73% 30.06 in 6.2 mi SW 9.2 mph - N/A   Mostly Cloudy
11:30 AM 71.6 °F 62.6 °F 73% 30.06 in 6.2 mi South 8.1 mph - N/A   Mostly Cloudy
12:00 PM 72 °F 63 °F 66% 30.07 in 19 mi South 8.1 mph - -   Partly Cloudy
12:00 PM 71.6 °F 62.6 °F 73% 30.06 in 6.2 mi South 8.1 mph - N/A   Mostly Cloudy
12:30 PM 73.4 °F 62.6 °F 69% 30.06 in 6.2 mi SSE 12.7 mph - N/A   Mostly Cloudy
1:00 PM 72 °F 64 °F 68% 30.06 in - South 12.7 mph - -  
1:00 PM 73.4 °F 64.4 °F 73% 30.04 in 6.2 mi South 12.7 mph - N/A   Mostly Cloudy
1:30 PM 71.6 °F 62.6 °F 73% 30.04 in 6.2 mi South 15.0 mph - N/A   Mostly Cloudy
2:00 PM 73 °F 63 °F 64% 30.04 in - South 16.1 mph - -  
2:00 PM 73.4 °F 62.6 °F 69% 30.04 in 6.2 mi South 16.1 mph - N/A   Mostly Cloudy
2:30 PM 71.6 °F 64.4 °F 78% 30.04 in 6.2 mi South 18.4 mph - N/A   Scattered Clouds
3:00 PM 73 °F 65 °F 69% 30.03 in 19 mi South 19.6 mph - -   Partly Cloudy
3:00 PM 73.4 °F 64.4 °F 73% 30.01 in 6.2 mi South 19.6 mph - N/A   Scattered Clouds
3:30 PM 71.6 °F 64.4 °F 78% 30.01 in 6.2 mi South 19.6 mph - N/A   Scattered Clouds
4:00 PM 72 °F 65 °F 71% 30.03 in - South 21.9 mph - -  
4:00 PM 71.6 °F 64.4 °F 78% 30.01 in 6.2 mi South 21.9 mph - N/A   Scattered Clouds
4:24 PM 71.6 °F 64.4 °F 78% 30.01 in 6.2 mi South 21.9 mph 43.7 mph N/A   Partly Cloudy
4:30 PM 71.6 °F 64.4 °F 78% 30.01 in 6.2 mi South 21.9 mph 43.7 mph N/A   Partly Cloudy
5:00 PM 71 °F 64 °F 73% 30.03 in - South 24.2 mph - -  
5:00 PM 71.6 °F 64.4 °F 78% 30.01 in 6.2 mi South 24.2 mph - N/A   Partly Cloudy
5:30 PM 71.6 °F 62.6 °F 73% 30.04 in 6.2 mi South 24.2 mph - N/A   Scattered Clouds
6:00 PM 70 °F 64 °F 75% 30.04 in 16 mi South 24.2 mph - -   Partly Cloudy
6:00 PM 69.8 °F 64.4 °F 83% 30.04 in 6.2 mi South 24.2 mph - N/A   Scattered Clouds
6:30 PM 69.8 °F 64.4 °F 83% 30.04 in 6.2 mi South 24.2 mph - N/A   Scattered Clouds
6:47 PM 69.8 °F 64.4 °F 83% 30.04 in 6.2 mi South 24.2 mph 35.7 mph N/A   Scattered Clouds
7:00 PM 70 °F 63 °F 73% 30.06 in - South 27.6 mph - -  
7:00 PM 69.8 °F 62.6 °F 78% 30.04 in 6.2 mi South 27.6 mph - N/A   Scattered Clouds
7:30 PM 69.8 °F 62.6 °F 78% 30.04 in 6.2 mi SSW 24.2 mph - N/A   Scattered Clouds
8:00 PM 70 °F 63 °F 72% 30.07 in - SSW 24.2 mph - -  
8:00 PM 69.8 °F 62.6 °F 78% 30.06 in 6.2 mi SSW 24.2 mph - N/A   Scattered Clouds
8:30 PM 69.8 °F 62.6 °F 78% 30.06 in 6.2 mi South 24.2 mph - N/A   Scattered Clouds
9:00 PM 69 °F 62 °F 72% 30.09 in 11 mi SSW 20.7 mph - -   Haze
9:00 PM 69.8 °F 62.6 °F 78% 30.09 in 6.2 mi SSW 20.7 mph - N/A   Mostly Cloudy
9:30 PM 69.8 °F 60.8 °F 73% 30.09 in 6.2 mi SSW 19.6 mph - N/A   Mostly Cloudy
10:00 PM 69 °F 63 °F 74% 30.11 in - SSW 21.9 mph - -  
10:00 PM 68.0 °F 62.6 °F 83% 30.09 in 6.2 mi SSW 21.9 mph - N/A   Scattered Clouds
10:12 PM 68.0 °F 62.6 °F 83% 30.09 in 6.2 mi SSW 18.4 mph 29.9 mph N/A   Scattered Clouds
10:30 PM 68.0 °F 60.8 °F 78% 30.09 in 6.2 mi SSW 17.3 mph - N/A   Scattered Clouds
11:00 PM 69 °F 61 °F 70% 30.11 in - SSW 16.1 mph - -  
11:00 PM 68.0 °F 60.8 °F 78% 30.09 in - SSW 16.1 mph - N/A   Clear
11:30 PM 68.0 °F 59.0 °F 73% 30.09 in 6.2 mi SSW 15.0 mph - N/A   Mostly Cloudy